KG1ZR Weather Reports


Display with metric or nautical units.
time (UTC)temp
F
wind
direction
speed
MPH
gust
MPH
rain 1hr
in
rain 24hr
in
rain mn
in
humidity
%
barometer
mb
20260904031829 63 271 0.0 0.0 0.00 0.54 0.54 50 1010.3
20260904030830 63 271 0.0 0.0 0.00 0.54 0.54 50 1010.3
20260904025829 63 271 0.0 0.0 0.00 0.54 0.54 50 1010.4
20260904025321 63 271 0.0 0.0 0.00 0.54 0.54 50 1010.7
20260904023829 63 137 0.0 0.0 0.00 0.54 0.54 50 1010.9
20260904022828 63 92 0.0 0.0 0.00 0.54 0.54 50 1011.0
20260904022313 63 92 0.0 0.0 0.00 0.54 0.54 50 1011.0
20260904020829 63 92 0.0 0.0 0.00 0.54 0.54 50 1011.1
20260904015828 63 92 0.0 0.0 0.00 0.54 0.54 50 1011.1
20260904014832 64 92 0.0 0.0 0.00 0.54 0.54 51 1011.1
20260904014756 64 92 0.0 0.0 0.00 0.54 0.54 51 1010.9
20260904012828 63 92 0.0 0.0 0.00 0.54 0.54 51 1010.9
20260904012755 64 92 0.0 0.0 0.00 0.54 0.54 51 1010.7
20260904010828 64 92 0.0 0.0 0.00 0.54 0.54 51 1010.8
20260904010308 64 92 0.0 0.0 0.00 0.54 0.54 51 1010.8
20260904004829 64 92 0.0 0.0 0.00 0.54 0.54 52 1010.7
20260904003828 64 92 0.0 0.0 0.00 0.54 0.54 52 1010.8
20260904003300 64 92 0.0 0.0 0.00 0.54 0.54 52 1010.7
20260904001830 64 92 0.0 0.0 0.00 0.54 0.54 52 1011.0
20260904000829 64 92 0.0 0.0 0.00 0.54 0.54 53 1010.9
20260903235828 64 92 0.0 0.0 0.00 0.54 0.54 53 1010.8
20260903235322 64 92 0.0 0.0 0.00 0.54 0.54 53 1011.2
20260903233830 64 92 0.0 1.0 0.00 0.54 0.54 54 1011.2
20260903233317 64 92 0.0 1.0 0.00 0.54 0.54 55 1011.2
20260903232308 64 92 0.0 1.0 0.00 0.54 0.54 55 1011.0
20260903230829 64 92 0.0 1.0 0.00 0.54 0.54 56 1011.1
20260903225828 65 92 0.0 0.0 0.00 0.54 0.54 56 1011.1
20260903224830 65 92 0.0 0.0 0.00 0.54 0.54 56 1011.3
20260903223829 65 92 0.0 1.0 0.00 0.54 0.54 57 1011.3
20260903222829 65 92 0.0 1.0 0.00 0.54 0.54 57 1011.3
20260903221828 65 92 0.0 0.0 0.00 0.54 0.54 57 1011.4
20260903220829 65 92 0.0 0.0 0.00 0.54 0.54 57 1011.3
20260903220309 65 92 0.0 0.0 0.00 0.54 0.54 58 1011.3
20260903214828 65 92 0.0 2.0 0.00 0.54 0.54 58 1011.2
20260903213829 65 92 0.0 2.0 0.00 0.54 0.54 58 1011.3
20260903213306 65 92 0.0 2.0 0.00 0.54 0.54 58 1011.2
20260903212309 65 207 0.0 0.0 0.00 0.54 0.54 57 1011.4
20260903210829 65 207 0.0 0.0 0.00 0.54 0.54 56 1011.5
20260903205829 65 207 0.0 2.0 0.00 0.54 0.54 57 1011.5
20260903204829 65 207 1.0 3.0 0.00 0.54 0.54 58 1011.5
20260903204310 65 120 0.0 2.0 0.00 0.54 0.54 57 1011.6
20260903202829 65 134 0.0 2.0 0.00 0.54 0.54 56 1011.7
20260903201829 65 88 0.0 2.0 0.00 0.54 0.54 55 1011.6
20260903200829 65 161 0.0 4.0 0.00 0.54 0.54 55 1011.6
20260903195829 65 135 2.0 4.0 0.00 0.54 0.54 55 1011.6
20260903194829 65 110 2.0 5.0 0.00 0.54 0.54 55 1011.9
20260903193829 65 87 1.0 4.0 0.00 0.54 0.54 54 1012.0
20260903193313 65 178 1.0 4.0 0.00 0.54 0.54 53 1012.1
20260903191829 65 117 2.0 5.0 0.00 0.54 0.54 53 1012.2
20260903190829 64 178 1.0 4.0 0.00 0.54 0.54 53 1012.3
20260903190304 64 90 1.0 5.0 0.00 0.54 0.54 53 1012.4
20260903184829 64 134 1.0 3.0 0.00 0.54 0.54 54 1012.6
20260903183829 64 207 0.0 4.0 0.00 0.54 0.54 54 1012.7
20260903183742 64 174 1.0 4.0 0.00 0.54 0.54 54 1012.8
20260903181828 64 178 1.0 6.0 0.00 0.54 0.54 54 1012.8
20260903180829 64 196 2.0 6.0 0.00 0.54 0.54 54 1012.9
20260903175828 64 140 2.0 5.0 0.00 0.54 0.54 53 1013.0
20260903174829 64 213 2.0 6.0 0.00 0.54 0.54 52 1012.9
20260903173829 64 159 2.0 6.0 0.00 0.54 0.54 52 1013.1
20260903172828 64 173 1.0 4.0 0.00 0.54 0.54 51 1013.1
20260903171829 64 136 1.0 5.0 0.00 0.54 0.54 51 1013.1
20260903171306 64 103 3.0 7.0 0.00 0.54 0.54 51 1013.1
20260903165829 63 166 2.0 7.0 0.00 0.54 0.54 51 1013.1
20260903164828 63 174 2.0 5.0 0.00 0.54 0.54 51 1013.1
20260903163826 63 121 2.0 5.0 0.00 0.54 0.54 52 1013.3
20260903162826 63 187 2.0 5.0 0.00 0.54 0.54 51 1013.4
20260903162315 63 190 1.0 5.0 0.01 0.54 0.54 51 1013.8
20260903160825 63 336 2.0 7.0 0.01 0.54 0.54 51 1013.9
20260903155825 63 110 2.0 7.0 0.01 0.54 0.54 51 1013.9
20260903154824 63 133 4.0 9.0 0.01 0.54 0.54 51 1014.0
20260903153818 63 190 3.0 7.0 0.01 0.54 0.54 50 1014.2
20260903152816 63 98 2.0 7.0 0.01 0.54 0.53 50 1014.2
20260903151815 62 165 2.0 9.0 0.00 0.53 0.53 50 1014.4
20260903150815 62 166 3.0 7.0 0.00 0.53 0.53 51 1014.7
20260903150301 62 200 2.0 5.0 0.00 0.53 0.53 51 1014.8
20260903144814 62 208 2.0 4.0 0.00 0.53 0.53 50 1014.8
20260903143814 62 195 1.0 5.0 0.00 0.53 0.53 50 1014.9
20260903142813 62 200 2.0 6.0 0.00 0.53 0.53 50 1014.9
20260903141814 62 157 2.0 4.0 0.00 0.53 0.53 50 1014.9
20260903140813 62 215 1.0 5.0 0.00 0.53 0.53 51 1014.9
20260903135803 61 185 1.0 6.0 0.00 0.53 0.53 51 1015.0
20260903134804 61 115 2.0 6.0 0.00 0.53 0.53 51 1015.0
20260903133804 61 248 2.0 5.0 0.00 0.53 0.53 51 1015.0
20260903132804 61 157 2.0 5.0 0.00 0.53 0.53 51 1015.0
20260903131803 60 198 2.0 5.0 0.00 0.53 0.53 51 1015.2
20260903130803 60 270 1.0 3.0 0.02 0.53 0.53 51 1015.3
20260903125803 60 182 0.0 2.0 0.04 0.53 0.53 51 1015.4
20260903124804 60 234 1.0 4.0 0.07 0.53 0.53 51 1015.3
20260903123801 60 186 2.0 7.0 0.09 0.53 0.53 52 1015.4
20260903122801 60 179 2.0 7.0 0.13 0.53 0.53 52 1015.4
20260903121801 60 140 2.0 7.0 0.18 0.53 0.53 52 1015.5
20260903120801 60 148 2.0 8.0 0.19 0.51 0.51 52 1015.7
20260903115801 60 190 3.0 8.0 0.18 0.49 0.48 52 1015.7
20260903114800 60 279 1.0 6.0 0.15 0.46 0.46 52 1015.6
20260903113800 60 116 0.0 3.0 0.13 0.44 0.43 52 1015.7
20260903112801 60 227 1.0 5.0 0.11 0.40 0.40 52 1015.6
20260903111801 60 192 1.0 5.0 0.09 0.35 0.34 52 1015.9
20260903110800 60 277 0.0 3.0 0.09 0.32 0.32 52 1015.9
20260903105801 60 175 1.0 13.0 0.12 0.31 0.31 52 1015.7
20260903104801 60 239 3.0 13.0 0.15 0.31 0.31 52 1015.7
20260903103800 61 182 3.0 7.0 0.17 0.31 0.30 51 1015.8
20260903102801 61 197 2.0 7.0 0.17 0.29 0.28 51 1015.5
20260903101801 61 237 3.0 7.0 0.16 0.26 0.26 52 1015.6
20260903101242 61 129 2.0 8.0 0.13 0.23 0.23 52 1015.5
20260903095801 61 153 1.0 5.0 0.10 0.19 0.18 52 1015.6
20260903094801 61 213 1.0 5.0 0.07 0.16 0.16 52 1015.6
20260903093800 61 196 2.0 6.0 0.05 0.14 0.14 52 1015.7
20260903092801 61 187 1.0 4.0 0.04 0.12 0.12 52 1016.1
20260903091801 61 108 1.0 5.0 0.02 0.10 0.10 52 1016.1
20260903090801 61 184 2.0 5.0 0.02 0.10 0.10 53 1016.2
20260903090254 60 200 1.0 4.0 0.01 0.09 0.09 53 1016.1
20260903084801 60 217 1.0 3.0 0.01 0.09 0.09 53 1015.9
20260903084243 60 192 1.0 3.0 0.05 0.09 0.08 53 1015.8
20260903083236 60 123 0.0 3.0 0.06 0.08 0.08 53 1015.9
20260903081801 60 132 0.0 8.0 0.06 0.08 0.08 54 1016.0
20260903080803 60 173 2.0 8.0 0.07 0.08 0.08 54 1016.1
20260903075758 60 187 1.0 7.0 0.07 0.08 0.08 54 1016.2
20260903074757 60 124 2.0 7.0 0.07 0.08 0.07 54 1016.5
20260903073756 60 173 2.0 5.0 0.04 0.04 0.04 54 1016.9
20260903072755 60 195 1.0 6.0 0.02 0.02 0.02 55 1017.0
20260903071755 60 170 2.0 6.0 0.02 0.02 0.02 55 1017.0
20260903070755 60 190 2.0 5.0 0.01 0.01 0.01 55 1017.0
20260903065755 61 176 1.0 4.0 0.01 0.01 0.01 55 1017.1
20260903064755 61 203 1.0 5.0 0.01 0.01 0.01 56 1017.2
20260903063752 61 140 1.0 5.0 0.00 0.00 0.00 56 1017.2
20260903062750 61 184 1.0 4.0 0.00 0.00 0.00 57 1017.4
20260903061747 60 213 2.0 4.0 0.00 0.00 0.00 57 1017.6
20260903061223 60 192 1.0 4.0 0.00 0.00 0.00 58 1017.7
20260903055744 60 217 1.0 4.0 0.00 0.00 0.00 58 1017.8
20260903054740 60 163 1.0 4.0 0.00 0.00 0.00 59 1017.9
20260903053738 60 205 2.0 3.0 0.00 0.00 0.00 60 1018.0
20260903052737 60 201 1.0 5.0 0.00 0.00 0.00 60 1018.1
20260903052205 60 178 2.0 5.0 0.00 0.00 0.00 61 1018.1
20260903050732 60 161 1.0 4.0 0.00 0.00 0.00 61 1018.0
20260903045731 60 104 1.0 5.0 0.00 0.00 0.00 61 1018.0
20260903044732 60 103 2.0 5.0 0.00 0.00 0.00 62 1018.2
20260903043732 60 169 0.0 2.0 0.00 0.00 0.00 62 1018.7
20260903043331 60 182 1.0 4.0 0.00 0.00 0.00 62 1018.9
20260903040731 60 228 2.0 5.0 0.00 0.00 0.00 63 1019.0
20260903035729 60 280 2.0 4.0 0.00 0.00 0.00 64 1018.9
20260903035204 60 121 1.0 4.0 0.00 0.00 0.00 64 1018.8
20260903033729 60 210 1.0 4.0 0.00 0.00 0.00 65 1018.8
20260903032729 60 211 1.0 6.0 0.00 0.00 0.00 65 1019.0